RH
98 96 93 92 93 100 96 91 95 100 97 91 89 90 88 84 89 84 81 51 86 91 86 75 83 89 67 96 96 98 97 94 81 67 62 45 50 52 51 51 49 47 48 41 35
93 92 94 94 93 93 94 94 93 92 89 89 91 90 93 87 82 64 62 90 85 75 93 62 44 59 78 83 96 97 93 84 59 58 54 48 49 49 57 57 56 51 50 46 42
97 92 93 94 94 95 93 94 91 90 89 91 91 88 85 69 68 53 41 61 73 73 58 52 46 56 92 84 83 83 99 74 60 54 58 51 47 48 58 65 55 60 53 46 50
97 93 93 91 92 93 93 92 92 92 92 91 91 90 81 62 28 24 27 51 56 59 60 50 50 57 79 76 67 99 72 96 92 59 62 59 53 52 57 50 50 54 54 48 46
92 94 89 91 91 51 46 21 36 91 92 92 92 89 75 62 36 18 25 28 31 34 40 53 52 54 69 63 55 61 74 68 83 98 75 76 77 54 56 53 49 50 52 56 52
94 87 90 95 57 19 17 15 23 38 61 68 83 73 73 84 24 24 32 34 31 33 40 44 51 42 60 67 69 59 57 57 57 81 98 91 85 90 68 53 55 50 54 55 58
85 81 91 63 22 16 12 16 20 20 21 29 56 82 81 45 31 36 40 39 30 32 34 30 29 57 49 72 57 66 87 71 66 53 95 89 92 81 73 76 59 57 53 55 58
70 36 38 24 16 15 11 15 20 21 22 24 50 76 70 30 35 31 29 31 32 32 35 32 32 52 62 52 70 74 74 90 47 55 68 92 91 70 71 76 89 71 69 63 69
26 15 14 16 17 17 14 13 21 21 19 18 27 42 44 32 28 28 36 38 38 32 31 31 46 59 56 88 86 85 89 84 64 48 58 91 95 68 66 78 76 88 88 72 71
22 16 15 19 17 21 20 15 16 26 28 32 32 33 27 33 32 33 35 37 38 37 37 44 60 78 95 96 91 83 95 79 73 45 60 77 94 75 67 84 81 89 81 84 82
28 18 18 22 19 27 29 20 31 26 31 38 33 37 32 34 33 30 35 39 39 44 73 52 78 87 73 77 69 71 65 85 65 49 52 84 80 87 66 84 91 93 82 74 74
34 22 22 23 22 33 32 46 68 56 77 37 37 35 32 38 45 31 36 44 51 70 62 79 87 63 52 60 68 74 93 88 70 60 52 59 70 59 62 72 80 89 92 88 93
36 31 23 19 28 37 36 48 61 78 83 45 34 41 35 42 46 40 38 43 63 72 66 89 64 50 55 68 83 82 92 81 79 57 61 70 74 77 59 64 75 83 84 96 90
34 27 26 20 32 41 46 49 61 83 55 36 36 37 37 42 45 34 37 47 55 72 86 90 58 66 81 87 77 95 59 72 70 79 90 67 90 81 74 65 72 76 98 86 98
31 22 21 22 32 44 42 43 73 65 39 32 44 34 44 47 41 40 38 47 70 67 77 62 68 88 86 66 52 80 66 79 72 77 79 86 87 64 70 74 83 69 75 81 89
28 25 22 17 27 38 34 48 64 34 44 53 44 50 52 48 40 44 48 49 52 73 59 55 69 90 79 77 74 71 97 93 83 77 94 67 95 57 92 86 89 80 76 79 76
26 27 26 24 34 32 33 39 38 65 46 50 60 55 57 54 50 55 66 79 90 90 70 60 69 94 96 92 70 97 97 96 96 95 92 60 96 97 90 93 94 78 78 93 93
28 28 31 22 26 30 28 40 74 60 76 55 60 61 72 57 58 69 75 90 77 88 92 99 81 81 72 95 96 96 93 89 96 97 80 80 92 95 95 88 94 96 96 89 92
35 25 34 25 21 28 27 85 82 72 64 73 71 79 77 55 76 83 83 95 91 79 95 96 75 42 77 95 97 97 95 86 92 86 81 86 95 82 87 91 88 92 92 97 96
38 30 42 32 21 24 68 73 69 57 64 69 95 80 100 81 90 89 88 76 85 67 72 91 93 48 54 70 71 96 88 84 95 84 85 92 93 91 91 92 92 91 91 95 100
43 32 45 40 31 48 94 92 74 59 64 73 87 93 93 96 88 97 88 72 69 66 69 90 96 61 61 91 95 85 86 92 95 96 82 95 92 92 92 93 92 93 95 97 98
58 61 51 47 59 76 96 88 66 70 64 66 69 77 90 84 97 97 95 78 54 70 97 87 96 90 95 93 88 79 93 95 95 95 95 84 97 88 89 91 90 92 96 97 97
65 55 54 52 90 96 85 77 74 72 74 80 77 71 77 95 96 83 86 61 62 76 90 81 92 94 72 87 60 92 90 90 93 94 95 93 92 85 85 88 92 93 96 95 96
70 89 62 66 74 93 90 82 82 63 77 74 76 72 90 92 85 92 89 70 61 72 60 75 90 93 92 92 96 91 85 89 90 92 92 91 90 85 83 88 90 93 96 95 96
92 90 79 93 85 97 94 88 90 90 77 78 79 81 94 99 93 92 72 77 66 72 84 88 99 91 88 83 82 79 88 93 91 94 93 95 91 93 93 92 94 96 96 96 97
99 98 98 94 92 90 82 88 87 91 94 86 94 80 92 98 86 88 85 82 88 84 95 84 78 96 99 92 86 86 82 76 84 88 85 93 94 94 94 95 94 96 96 94 96
99 99 98 88 89 91 85 83 87 88 74 78 83 94 84 74 68 73 79 78 82 96 100 88 93 96 96 92 95 86 98 94 95 94 96 95 95 92 91 89 93 96 97 97 98
Wind_Speed
27 28 29 30 30 29 27 24 23 22 22 22 21 21 20 19 20 22 24 21 20 17 17 13 12 16 24 21 25 17 10 26 36 35 21 15 17 35 32 21 29 34 29 17 32
27 29 30 31 31 28 25 25 24 22 21 19 19 18 16 16 18 20 4 10 9 8 3 10 15 15 12 16 9 11 17 23 33 26 27 16 16 23 14 20 23 27 33 32 26
29 30 31 32 30 27 25 25 23 21 19 18 17 15 13 14 13 1 8 9 8 8 10 7 10 10 2 13 13 7 8 21 28 20 20 25 27 23 16 18 34 34 32 41 35
30 31 32 33 30 27 27 24 22 20 18 17 13 12 12 8 3 6 5 8 8 11 10 8 8 5 2 6 13 9 14 14 18 36 19 23 34 21 26 35 23 38 41 43 45
30 31 33 33 30 27 24 21 22 20 18 16 11 9 8 7 6 6 7 11 16 18 15 17 14 11 6 4 10 14 20 22 21 22 30 28 20 34 29 41 28 33 43 47 48
31 32 34 32 27 27 22 22 22 20 18 11 6 7 7 3 3 6 8 14 21 27 24 22 19 20 10 7 11 11 18 22 25 21 18 18 17 29 31 26 34 33 41 45 46
33 35 36 33 25 28 21 22 20 15 12 5 4 9 10 12 8 13 18 24 27 26 24 21 21 21 10 4 18 19 20 18 19 14 7 21 21 27 35 16 30 39 39 40 44
36 38 37 30 26 27 21 22 16 11 11 6 6 11 9 9 9 23 28 27 22 20 22 23 24 19 15 14 8 10 12 11 8 13 8 11 18 20 21 33 19 23 35 38 41
38 40 35 25 27 26 21 21 11 5 6 4 6 7 7 6 24 34 19 22 24 22 19 17 14 13 8 3 9 8 13 9 12 14 11 16 10 16 14 24 30 19 27 35 37
40 39 29 25 27 20 23 21 10 4 3 3 2 3 3 15 31 23 17 25 24 21 18 10 8 4 1 4 12 8 10 8 9 5 11 19 19 11 12 23 27 25 25 29 32
40 35 24 27 25 19 25 19 13 1 8 2 4 7 17 17 33 17 22 29 13 8 3 7 2 7 10 12 17 17 17 13 9 10 13 16 18 13 18 12 7 16 21 27 34
38 27 25 27 16 21 22 14 12 7 7 0 6 10 12 24 17 19 24 15 9 10 7 3 12 13 14 13 16 18 16 16 12 13 15 16 19 21 16 15 16 13 13 16 22
35 21 24 30 10 22 22 21 16 2 1 4 7 7 15 28 11 14 23 20 5 7 8 5 11 9 10 10 12 18 16 16 11 13 11 10 15 16 19 16 18 23 27 8 21
32 18 26 34 10 22 15 23 7 0 3 5 6 4 16 29 4 24 21 13 8 9 7 9 6 5 5 6 9 18 15 17 16 12 7 10 5 15 17 18 16 19 17 18 9
25 20 30 30 19 24 24 16 3 2 4 15 7 9 34 9 15 6 30 9 8 15 3 9 14 15 13 10 13 14 13 22 19 18 3 4 2 4 20 15 17 23 28 29 17
20 22 36 26 26 29 20 11 1 4 5 8 8 14 18 5 19 9 12 16 18 6 10 16 5 4 5 9 16 12 9 7 8 5 5 11 5 8 2 5 7 14 23 29 23
22 18 36 27 32 24 12 6 5 6 8 10 10 14 16 12 11 8 9 12 8 12 24 16 3 3 2 13 7 12 6 3 5 5 4 12 7 6 9 12 14 12 14 12 11
16 22 37 26 30 22 12 5 9 4 3 9 9 14 6 12 10 11 8 7 3 4 13 7 6 3 4 5 6 4 4 5 5 5 5 9 6 4 9 13 20 23 20 19 15
22 7 32 26 28 15 4 7 3 3 6 9 13 4 4 6 4 8 6 3 4 9 9 6 6 13 13 10 2 2 4 3 2 1 3 5 5 8 13 16 18 19 22 23 18
23 6 29 29 24 11 7 4 2 2 6 3 3 3 5 10 9 9 5 4 6 9 12 4 8 4 16 9 7 5 6 1 1 6 4 5 4 4 13 16 16 18 18 22 20
17 4 22 31 13 17 4 2 4 10 8 2 2 4 5 10 8 4 6 10 4 13 11 9 1 9 6 9 11 10 6 5 3 3 4 5 4 7 10 11 13 13 19 20 20
16 3 17 29 10 5 2 5 9 5 8 3 2 4 3 15 4 3 5 4 20 15 10 3 3 5 5 5 11 16 7 5 2 5 3 3 3 8 10 11 12 14 17 19 18
16 6 11 20 4 3 6 5 2 4 4 3 3 1 3 4 5 4 5 10 17 11 8 7 3 6 5 3 6 7 18 11 8 4 3 1 3 9 11 12 16 15 17 20 18
11 4 7 8 6 4 6 3 5 9 5 4 4 3 4 5 4 6 5 8 27 6 21 7 2 2 1 3 3 7 19 19 5 3 3 5 5 13 14 13 13 19 20 19 20
9 1 1 4 2 3 1 2 4 5 4 6 4 2 7 4 5 3 4 9 11 8 8 4 1 2 6 10 7 12 15 18 17 12 6 4 5 10 11 11 9 15 19 20 23
7 3 2 6 10 4 1 3 3 3 3 5 3 13 3 5 7 12 7 3 5 8 7 7 3 2 5 11 4 6 15 11 12 13 8 5 3 11 13 14 12 14 19 20 22
14 7 4 5 2 1 3 4 4 7 8 13 8 10 8 8 13 28 18 16 7 3 4 4 2 4 3 1 7 2 8 5 3 8 4 7 6 13 13 11 10 13 19 20 24
Wind_Direction
348 344 343 341 338 333 332 329 326 324 321 317 316 311 308 305 299 289 286 296 284 281 261 288 309 268 258 263 256 273 235 229 218 225 226 181 212 215 218 211 212 219 227 225 234
347 345 342 340 337 334 332 330 327 322 320 323 317 319 320 314 298 301 15 316 340 308 48 355 328 310 288 255 232 225 245 233 225 229 231 224 200 202 194 208 217 223 220 219 224
345 343 342 339 337 334 331 328 326 323 323 322 324 322 313 312 316 246 344 336 310 329 328 306 307 309 354 288 264 229 242 252 247 245 226 230 228 204 202 215 216 212 209 217 217
345 343 341 340 337 334 332 329 326 323 321 321 322 317 302 320 317 352 355 341 326 312 286 282 276 291 269 237 292 314 300 314 323 256 261 236 246 216 200 214 222 219 221 220 223
344 341 341 338 335 336 340 340 333 323 319 315 312 295 292 301 262 340 353 344 327 319 299 273 262 256 223 263 317 272 275 281 276 302 275 284 244 235 218 225 230 216 219 220 224
344 341 340 338 337 339 340 343 333 322 319 305 284 278 271 276 291 321 294 316 320 318 292 284 258 267 254 261 261 275 280 281 280 276 300 283 271 227 242 226 222 220 215 221 224
344 344 342 340 342 339 338 346 334 324 318 262 233 260 275 286 302 305 312 306 309 306 296 288 276 255 246 256 255 266 281 279 259 257 269 307 281 231 217 237 235 221 225 223 226
347 345 343 342 344 341 342 349 337 329 327 239 207 235 256 323 334 314 318 309 311 292 289 290 282 258 243 255 290 281 275 281 297 222 236 260 251 242 213 220 242 232 216 219 224
349 346 347 348 343 342 345 354 339 35 358 190 225 231 265 290 321 326 334 327 319 303 287 295 264 224 219 200 272 226 260 259 290 229 234 211 264 237 223 207 219 246 219 211 221
350 347 351 352 343 343 348 353 340 222 63 131 253 291 254 321 330 331 342 332 319 303 286 258 234 208 64 179 249 230 235 261 255 299 221 233 248 253 224 212 210 222 229 212 211
351 348 353 352 343 349 350 4 23 29 341 262 308 264 303 324 330 334 340 333 328 274 234 268 240 242 231 219 248 262 262 275 279 265 248 244 248 253 229 213 197 228 242 217 214
351 351 354 355 348 357 355 20 358 300 317 323 308 307 331 335 317 334 338 332 312 296 301 328 254 247 243 230 244 253 270 264 265 258 256 249 242 243 246 205 199 227 245 213 212
351 354 354 357 341 350 1 352 338 298 248 310 326 318 344 340 317 320 333 324 265 278 298 237 252 275 267 254 244 248 248 248 244 272 236 247 245 224 228 226 199 209 239 265 221
351 356 355 355 353 346 350 338 343 109 75 350 342 3 339 337 319 330 345 326 313 296 303 273 285 252 267 261 213 258 243 247 248 241 242 185 251 204 204 209 212 201 194 242 241
356 8 1 357 357 356 340 342 23 131 40 318 321 328 335 345 304 314 334 319 278 304 284 265 287 273 276 261 227 256 259 242 215 216 359 267 208 253 185 199 199 206 196 196 226
360 12 1 4 359 348 345 349 15 38 321 334 327 336 339 314 333 302 322 321 307 287 277 292 192 235 239 274 239 239 272 168 180 190 228 233 201 192 151 342 320 208 192 202 204
2 12 5 4 355 350 354 343 37 73 358 334 326 333 326 324 329 332 323 332 14 340 347 322 183 273 330 307 297 194 180 133 172 199 192 193 224 52 28 5 360 290 161 115 155
8 27 14 9 352 351 2 53 63 301 285 302 309 319 327 359 330 329 324 338 318 330 316 337 328 32 327 271 277 272 192 141 171 160 181 119 179 70 39 29 20 36 58 69 78
1 344 11 9 356 357 21 48 188 291 305 314 318 335 315 332 301 347 327 275 289 355 356 314 277 330 341 331 273 103 219 170 116 179 82 105 118 71 20 29 20 23 36 46 48
359 9 13 9 13 21 62 103 269 257 326 303 329 41 310 329 337 354 320 250 304 343 351 280 293 352 337 343 8 322 352 306 265 132 188 136 78 32 6 9 13 12 15 26 27
4 43 5 8 17 44 76 271 297 305 347 326 271 289 264 327 311 299 273 292 335 326 330 306 260 307 16 21 31 355 14 354 277 246 175 146 93 22 14 13 14 3 7 20 19
1 29 350 11 43 28 12 306 316 299 341 304 268 252 255 329 292 291 278 273 329 335 330 333 296 310 52 146 101 71 1 330 320 20 33 39 102 16 14 14 22 360 6 16 21
347 316 345 17 54 9 312 302 286 308 323 314 291 257 348 304 319 253 296 284 321 334 336 337 3 327 328 212 42 23 2 334 235 273 30 327 129 22 17 11 12 3 7 15 14
350 358 344 35 92 115 349 281 314 310 294 308 271 318 323 300 222 289 303 306 322 308 346 359 64 119 168 169 295 7 1 4 6 29 76 43 91 8 6 2 5 4 6 11 16
360 356 31 310 359 340 199 271 305 330 305 314 311 240 327 293 304 251 291 314 315 339 358 71 332 89 138 150 80 38 18 14 32 10 42 52 76 14 354 341 21 4 3 6 13
326 328 267 278 290 322 307 245 281 287 241 281 211 315 291 212 205 294 311 280 265 328 3 351 302 127 221 206 134 62 24 20 34 12 32 359 90 10 341 344 4 7 0 2 8
325 295 216 270 251 301 229 243 262 326 263 238 284 309 301 253 281 286 276 252 240 23 312 19 351 357 276 311 210 21 352 17 84 32 332 16 325 332 336 335 343 8 3 356 4